Vorticity
11 10 9 8 8 7 6 6 6 6 5 5 6 8 11 14 17 17 14 10 8 7 4 3 6 7 4 1 1 3 5 7 6 4 8 11 13 17 12 8 9 9 7 7 7 4 3 3 3 2 1 3 0 1 3 1 2 3 2 -1 6 15 9 8 7 2 6 10 9 10 9 3 5 7 7 10 8 7 9 8 10 6 6 9 6 7 11 11
9 10 11 11 11 10 8 8 7 6 6 6 6 6 6 8 12 16 18 16 12 9 8 5 3 7 7 4 1 1 3 4 5 6 8 7 7 12 16 16 9 7 9 6 5 4 4 3 3 4 2 2 1 2 2 2 3 1 -3 -5 -2 5 9 8 5 5 6 8 9 8 10 6 5 5 5 8 7 7 10 11 11 6 8 12 7 5 9 12
5 6 8 9 10 11 11 10 9 8 7 7 6 6 6 6 6 9 14 18 19 14 9 8 5 4 6 8 3 -0 2 3 4 7 7 7 8 5 9 19 14 7 8 6 4 4 4 4 3 2 4 4 1 2 3 4 4 0 -1 2 9 8 5 9 9 8 7 6 8 7 8 7 7 6 5 8 6 5 7 8 9 8 11 10 6 5 7 12
3 4 5 6 8 9 10 10 11 11 9 9 7 7 7 6 6 6 7 11 17 20 16 10 8 6 5 7 6 2 0 1 5 7 7 9 10 7 4 13 17 9 6 6 5 4 2 5 5 1 4 5 1 3 2 3 2 2 1 -7 5 15 7 10 11 8 9 6 6 7 6 6 7 7 8 8 6 6 5 6 8 9 12 8 6 9 8 11
5 5 4 4 5 6 8 9 10 11 11 11 10 8 7 7 7 6 6 6 9 16 21 17 11 8 6 6 7 6 0 -0 7 8 7 9 8 10 9 7 14 14 6 6 7 5 3 4 5 4 5 4 3 6 2 3 3 2 5 -8 -4 8 0 5 10 7 9 6 6 7 5 6 7 7 10 6 4 8 7 7 10 8 10 11 8 9 10 13
9 8 6 5 4 5 6 7 8 9 10 11 12 11 10 9 8 7 7 7 7 8 15 21 19 12 7 7 6 5 2 -2 0 4 5 8 4 8 14 7 9 14 9 8 8 7 6 3 5 6 7 7 6 6 1 2 5 -2 -0 1 3 7 1 4 9 8 9 7 7 8 6 7 8 8 11 6 2 8 7 9 15 9 6 12 11 8 9 13
10 10 10 8 6 5 4 5 6 7 8 9 10 11 11 11 10 10 8 7 8 6 7 14 21 20 11 8 7 6 4 -3 -3 1 2 7 5 3 12 12 7 11 13 10 6 8 7 3 6 6 6 8 6 7 3 -0 6 0 -5 4 8 6 3 3 8 9 9 9 7 7 6 8 8 8 11 8 4 8 5 7 16 14 8 8 10 11 7 7
8 9 10 11 10 8 6 5 4 5 7 7 8 9 9 10 11 11 11 10 9 8 7 7 13 22 20 12 7 7 4 -2 2 4 -1 4 6 2 7 12 9 8 14 13 8 8 6 5 6 5 5 6 6 8 6 1 4 4 -2 1 8 7 4 5 10 10 8 8 7 6 5 7 8 7 10 7 6 10 5 6 13 15 12 6 7 12 6 5
8 8 8 9 11 11 9 7 5 4 4 5 6 7 8 8 8 8 9 11 11 11 10 8 7 13 21 20 12 8 6 1 6 6 -1 2 5 4 5 9 11 8 11 13 11 9 6 9 6 5 6 3 6 6 7 5 -2 10 13 1 2 5 6 10 10 11 11 7 6 7 6 6 7 9 11 6 7 11 7 6 9 12 15 8 6 10 8 8
6 7 7 8 9 10 11 10 9 7 4 4 3 4 6 7 8 8 7 7 9 10 11 11 9 7 12 20 19 13 10 6 6 6 2 3 2 4 5 6 9 9 10 12 12 9 6 9 5 5 6 2 5 4 9 4 -17 5 26 8 2 2 5 12 9 10 11 7 7 8 7 7 7 7 9 7 9 11 9 8 7 8 14 11 7 7 8 9
4 5 6 6 7 7 9 10 10 9 8 6 5 3 3 4 6 7 8 7 7 7 9 10 11 11 8 11 17 19 20 12 7 8 4 3 2 3 3 4 8 8 9 11 13 11 7 7 3 3 4 1 6 5 9 -1 -23 -2 17 6 6 4 5 11 9 8 7 6 8 7 7 7 6 6 8 8 9 8 8 11 8 5 10 14 10 4 8 9
5 5 5 5 6 6 7 8 9 10 9 8 7 7 5 3 4 4 6 7 7 7 7 8 8 11 10 9 10 15 25 22 10 8 7 5 4 2 2 3 6 8 8 10 13 14 10 6 1 3 5 2 5 7 7 1 -11 2 11 4 6 4 6 11 10 7 5 6 8 7 6 5 5 7 7 7 9 8 6 10 10 4 4 12 12 4 7 9
4 6 7 6 5 5 5 6 7 8 9 9 8 8 8 6 5 4 4 5 6 7 7 8 8 8 10 11 9 9 18 25 18 12 9 7 5 4 3 2 4 6 8 9 11 14 12 7 1 3 5 4 5 3 5 6 -3 0 7 5 4 4 4 8 13 9 4 7 8 7 4 4 4 4 6 4 7 9 6 7 11 10 5 7 11 7 6 7
2 4 6 7 7 6 5 5 5 6 7 8 8 8 8 8 7 5 5 5 4 6 6 7 8 8 8 8 8 8 11 17 19 18 15 9 7 6 4 2 4 5 7 9 10 13 14 8 3 5 6 8 8 2 4 7 -0 -0 4 2 1 3 3 9 17 9 3 5 8 7 1 5 7 2 5 4 3 7 5 6 8 10 10 6 7 7 7 7
3 3 4 5 7 8 7 6 4 5 5 6 7 7 7 7 8 7 6 6 5 5 5 5 7 7 8 8 6 7 10 11 12 18 21 16 9 7 6 4 2 3 5 6 8 11 12 7 4 6 5 6 6 6 13 9 -0 1 1 0 3 5 5 10 14 7 2 4 7 6 -3 4 12 4 4 4 2 5 5 6 6 6 9 8 8 6 6 8
4 3 4 4 5 7 8 8 7 6 4 5 5 6 7 7 7 8 7 6 6 6 6 5 6 6 7 9 7 6 9 10 10 11 19 24 17 10 8 7 3 2 4 4 7 9 11 10 10 7 3 6 4 7 20 13 -0 2 -1 -1 6 9 4 4 11 8 3 4 5 5 -2 -0 10 9 5 4 1 2 3 5 5 5 7 7 7 7 6 7
4 3 4 3 3 4 5 7 8 8 7 5 5 5 5 6 7 8 8 7 6 6 6 5 5 6 6 8 9 8 7 7 8 8 12 20 24 18 10 8 6 2 2 3 5 8 10 11 12 8 3 10 5 -3 8 11 4 3 1 1 4 8 3 -2 10 12 4 6 5 3 1 -2 5 10 7 3 3 2 3 3 4 6 6 8 7 6 7 7
3 3 3 3 2 3 3 4 5 7 9 7 6 5 4 6 6 7 8 8 8 6 6 6 6 5 6 7 8 10 9 8 7 7 9 12 20 24 16 10 8 6 3 2 3 5 8 10 11 8 3 8 9 2 3 10 9 3 3 5 3 6 6 -2 5 17 10 3 5 5 3 -0 2 10 9 5 5 4 4 3 4 5 4 7 9 8 6 5
5 5 4 4 4 3 3 3 2 4 6 8 8 6 5 5 5 6 9 8 8 8 6 7 7 5 6 6 6 7 9 9 7 5 8 10 13 20 22 16 10 9 5 3 3 4 7 9 7 7 9 7 7 10 11 11 7 3 3 7 6 2 6 6 4 17 16 1 4 10 6 3 -0 5 11 8 6 6 5 4 4 5 4 5 7 9 8 7
7 7 6 6 6 5 5 4 3 3 3 5 7 7 7 6 5 6 8 8 8 8 7 7 7 6 6 6 7 7 7 8 9 7 6 9 10 12 20 21 15 10 7 5 3 3 5 5 3 6 10 7 3 3 8 10 4 2 2 5 10 3 0 12 8 10 20 8 4 8 6 7 2 2 10 9 8 7 5 5 5 5 4 4 5 6 8 9
8 8 7 7 7 7 7 6 5 5 4 3 4 6 7 6 6 5 6 7 7 7 8 8 8 8 7 6 7 6 6 7 8 8 6 8 11 9 13 19 20 15 10 9 5 3 4 0 3 9 8 8 7 3 3 8 4 -1 1 3 9 9 4 9 3 3 16 10 3 6 6 8 6 3 6 7 9 8 7 7 6 6 5 4 4 5 6 7
8 8 7 7 7 7 8 8 8 7 6 5 3 3 6 7 6 6 5 6 7 7 7 8 8 9 7 6 8 7 7 7 6 8 7 7 11 12 11 13 20 21 14 10 7 4 3 -0 3 9 10 8 8 6 2 9 8 -5 -2 6 7 10 8 4 3 11 23 16 5 7 6 6 7 5 4 5 6 6 7 7 5 6 5 5 4 3 4 4
8 8 8 7 6 6 7 7 8 8 8 7 6 4 4 6 7 7 6 5 7 8 8 8 9 9 7 6 8 7 7 6 6 7 7 6 8 11 13 10 15 21 17 12 8 6 5 3 3 6 11 11 7 7 2 5 12 -2 -8 4 7 7 8 7 5 1 8 13 7 5 8 7 5 5 4 4 6 7 6 5 5 6 4 4 6 3 2 4
6 6 7 8 8 7 6 6 6 8 8 8 9 7 5 4 6 7 7 6 6 7 7 6 9 10 7 7 8 8 8 7 7 7 6 7 6 7 13 14 12 14 17 17 13 9 6 4 4 5 10 11 5 7 5 2 10 8 -2 -1 4 7 8 8 3 -5 2 13 8 4 6 6 4 5 5 3 4 6 5 4 4 5 5 4 4 4 3 4
6 6 6 7 8 8 7 6 6 6 6 7 8 9 8 5 5 6 7 7 5 6 6 6 9 10 9 9 8 8 8 8 8 7 8 9 7 6 10 14 14 11 13 19 18 12 8 7 6 6 8 9 6 6 8 5 5 8 5 -1 -1 3 7 5 -0 5 19 20 9 3 4 7 6 3 5 7 6 5 4 6 5 3 4 4 4 4 4 3
8 8 7 7 7 8 7 6 7 7 6 7 7 8 9 8 6 6 7 9 7 5 6 6 6 7 9 9 8 9 8 8 8 7 9 9 6 6 6 9 14 15 12 14 17 15 12 8 6 7 5 5 9 6 7 9 6 6 7 4 -0 -2 3 7 0 1 14 17 13 7 1 6 10 6 6 6 4 6 3 3 5 3 3 4 4 4 3 3
8 8 7 8 8 8 8 7 7 7 7 7 7 7 8 9 8 7 6 8 8 7 8 9 8 8 9 7 8 9 6 9 12 10 10 7 5 6 4 4 7 12 15 11 10 14 19 14 5 5 5 5 8 6 7 11 7 6 7 4 5 4 -0 1 3 4 9 14 16 10 1 1 5 7 10 9 4 4 3 2 4 3 5 6 4 5 5 3
6 6 6 7 7 7 8 9 8 7 7 7 7 7 7 9 9 7 7 6 7 8 7 6 7 9 10 9 8 6 4 7 8 8 12 9 7 8 7 8 8 10 14 13 11 13 21 21 11 6 7 5 4 6 10 11 6 8 7 -1 4 15 5 -7 -2 8 9 10 18 22 13 3 3 4 7 12 7 3 3 3 3 3 4 5 3 5 7 4
4 5 5 5 6 7 7 8 8 8 8 7 7 8 7 8 8 8 7 5 7 10 9 7 6 6 7 8 7 6 7 8 4 7 13 13 11 10 9 11 10 10 10 11 15 13 12 19 15 9 11 6 2 8 13 8 4 7 7 -2 -2 11 12 1 0 6 7 9 13 17 14 9 9 5 4 8 6 6 10 5 6 8 3 5 9 6 5 5
4 4 4 5 6 7 7 7 7 8 9 8 7 7 8 8 8 8 5 4 7 8 9 10 10 8 8 8 8 8 8 8 6 5 6 8 9 8 7 8 6 7 8 7 14 15 12 18 15 10 16 11 3 8 12 8 5 6 6 -3 -7 4 13 11 7 2 2 3 1 1 6 11 14 7 -1 3 9 10 10 5 6 8 5 12 16 8 2 4
3 3 4 6 7 7 8 7 7 7 8 8 8 7 7 8 7 6 5 7 10 8 8 9 7 7 8 9 10 10 9 9 9 8 5 6 9 8 7 7 6 7 8 4 11 17 13 13 14 11 15 14 7 6 9 10 6 7 8 -6 -12 1 8 11 14 6 3 6 8 11 9 4 13 18 4 -2 9 14 7 5 7 4 10 19 11 2 6 6
5 5 6 7 8 9 8 8 7 7 7 7 8 8 7 7 8 8 7 8 8 7 9 10 7 7 8 8 8 7 7 8 9 9 9 6 6 8 6 6 7 7 9 8 9 16 13 12 17 17 16 16 12 7 6 11 6 6 12 -3 -11 4 8 9 14 6 3 5 6 14 14 5 4 13 18 5 -1 12 15 6 2 1 10 20 11 -1 3 5
7 8 8 7 10 9 7 7 7 7 7 6 6 8 8 6 7 9 9 9 8 7 10 10 10 9 8 9 9 9 8 8 8 7 7 6 2 3 4 5 6 5 9 10 5 10 11 9 14 21 22 18 16 12 4 6 7 6 12 3 -8 0 4 8 11 5 5 6 6 5 2 11 11 5 18 13 -9 4 26 17 6 7 6 12 23 17 6 3
5 7 6 5 8 9 7 7 7 6 7 6 7 8 6 5 7 9 8 9 9 9 9 9 11 8 5 6 8 10 8 6 9 7 6 8 4 3 5 5 7 6 8 9 4 8 10 5 7 16 23 19 18 19 9 8 11 6 11 9 -9 -15 -9 -1 5 3 -0 -0 10 13 -3 -2 11 8 11 15 -1 -12 2 16 12 7 4 2 13 20 14 10
6 6 6 4 5 7 8 7 7 7 5 6 9 6 4 7 9 8 7 8 8 9 9 8 10 7 3 5 5 7 6 4 9 8 5 8 7 8 7 4 6 5 4 8 7 8 8 7 8 10 20 24 21 21 16 13 10 2 10 12 -6 -10 -7 -9 -3 8 10 3 2 13 17 7 0 3 1 9 20 -3 -14 14 13 -7 3 9 1 4 10 12
8 7 7 6 5 7 9 8 9 8 5 7 6 2 7 14 11 7 8 9 8 7 8 8 9 9 6 5 4 5 6 5 8 7 5 8 8 8 8 5 5 3 3 8 9 8 8 13 15 9 12 22 22 21 19 12 6 7 16 11 -1 6 5 -9 -7 2 6 11 6 -1 11 16 11 13 2 -5 18 16 -3 8 10 -0 9 8 -3 1 8 11
11 12 12 8 8 11 11 10 9 8 7 5 -1 1 13 16 10 8 8 8 8 6 7 7 8 8 6 6 7 7 7 3 3 5 5 6 6 7 9 9 6 4 5 8 9 12 10 11 17 12 6 12 19 22 20 14 9 8 14 14 7 6 5 -3 -3 -2 -7 0 10 10 8 6 7 18 19 8 8 5 -7 -7 3 13 7 -9 -2 10 6 6
12 19 15 6 12 16 14 13 11 9 9 2 -3 6 15 12 8 10 8 7 9 8 7 8 9 8 5 4 5 9 12 7 1 4 6 6 7 6 5 8 9 6 4 7 10 11 6 3 10 15 13 10 16 21 20 19 13 1 1 19 26 10 -5 -4 0 2 8 5 -2 6 16 10 2 2 9 20 20 11 9 5 -1 0 -2 -1 18 22 9 7
13 21 12 5 21 21 13 16 15 11 8 2 3 9 10 9 8 7 7 8 9 8 8 9 10 10 7 3 1 7 17 13 4 6 6 3 8 10 7 6 9 8 4 5 9 9 8 4 1 10 17 10 10 21 23 20 19 11 -4 -1 27 36 12 1 4 -6 -6 7 5 0 5 11 17 11 -2 9 27 30 23 6 -8 -3 4 7 14 16 13 12
13 22 11 7 26 21 10 18 17 13 10 5 8 10 6 8 7 6 7 8 8 7 8 9 9 9 8 7 2 -0 9 18 15 13 10 5 4 8 10 7 5 10 7 4 8 8 9 9 4 10 16 9 8 21 27 19 17 23 9 -22 -11 30 32 10 7 1 -14 -9 3 5 5 6 13 15 6 6 21 33 29 12 7 22 22 2 -1 15 24 16
16 25 13 8 27 26 16 18 15 14 14 10 10 10 7 7 4 5 8 5 6 7 7 9 9 8 8 9 6 -4 -4 8 14 10 8 12 11 7 7 6 6 10 9 6 8 8 6 7 7 6 10 15 13 11 17 22 19 25 31 7 -23 -12 21 24 11 9 6 4 4 -1 2 11 14 14 13 6 1 10 22 18 13 20 18 4 -0 13 29 26
20 25 15 13 29 31 21 16 15 17 15 13 13 11 10 10 6 6 8 6 6 6 7 8 7 7 7 5 7 5 -1 -1 2 2 3 8 13 12 8 6 5 8 11 10 10 13 13 9 5 -2 -3 11 17 9 9 19 23 22 28 38 18 -18 -14 11 12 2 -0 10 18 2 -13 -3 7 10 15 13 10 15 17 10 7 5 -3 -5 -3 1 19 32
18 21 21 19 23 26 21 14 14 17 15 14 16 13 12 14 11 8 7 7 7 5 7 10 9 10 10 7 7 7 5 1 -3 1 6 3 1 4 5 6 6 6 9 10 8 9 8 4 7 8 3 5 14 18 17 15 19 18 6 15 31 14 -12 -10 5 9 -2 -4 9 9 -0 -5 -9 -8 2 7 15 28 21 3 4 8 -5 -9 -2 -1 13 30
20 23 28 22 18 22 23 18 16 17 15 15 15 15 15 16 15 13 8 6 8 8 8 10 11 10 8 9 11 9 8 7 3 4 8 6 3 2 5 7 5 6 8 11 13 14 13 9 5 8 9 2 -3 0 7 10 13 16 8 -0 12 28 23 4 -6 -1 -0 -6 -7 -3 4 9 2 -6 -8 -6 -1 9 18 17 13 8 -1 -6 -5 -9 -0 17
25 26 29 26 22 21 19 16 17 15 16 18 16 13 13 12 12 16 15 11 8 9 11 10 12 13 11 8 8 10 11 9 9 9 5 5 6 3 3 3 2 6 9 9 10 8 14 19 8 1 3 -3 -8 -0 7 12 17 20 22 21 17 22 29 22 6 -6 -6 -2 -5 -12 -12 1 15 14 4 0 1 5 19 32 28 17 6 -3 -7 -7 3 11
27 26 27 25 22 23 20 20 21 17 16 19 19 16 15 14 10 8 10 13 11 10 13 12 10 9 9 9 7 6 10 10 10 11 7 6 8 3 2 5 4 8 11 8 7 -1 -4 6 8 4 4 -0 6 22 21 13 17 22 25 26 19 13 18 29 29 16 4 3 3 -3 -14 -20 -11 8 18 9 -4 7 21 12 4 14 17 9 6 8 10 3
26 27 30 26 22 25 26 26 30 34 30 21 15 15 17 19 21 18 14 14 12 11 13 14 15 13 8 9 11 7 7 9 9 10 9 7 8 6 6 8 6 7 9 8 9 6 0 0 3 5 7 7 8 13 15 16 15 14 20 26 21 12 9 15 24 25 18 13 12 13 8 -9 -30 -28 4 18 2 4 16 4 -6 4 8 7 12 15 14 6
26 27 28 25 25 28 25 17 13 22 35 36 28 23 17 13 14 18 23 25 22 22 20 10 7 14 13 9 10 9 8 9 8 7 10 10 8 8 8 9 8 5 7 9 9 8 7 6 4 6 12 16 11 2 5 15 15 9 13 20 24 23 13 3 7 16 17 11 12 16 19 23 11 -20 -24 2 13 7 7 7 5 3 1 7 13 14 17 19
26 30 28 23 22 23 22 19 9 2 10 25 33 31 27 22 16 12 14 18 21 27 36 31 17 16 21 16 12 12 8 7 10 10 11 13 11 10 10 11 15 12 5 6 9 8 7 8 9 7 6 12 17 12 4 -0 -2 4 12 13 16 24 24 14 9 12 16 12 9 6 -0 8 30 25 -7 -24 -14 3 18 24 16 3 0 4 6 10 17 21
30 33 34 30 27 24 20 21 22 15 7 11 23 31 30 29 27 22 12 5 5 9 26 44 37 21 18 15 10 13 11 8 13 14 13 13 9 7 9 5 8 18 16 8 9 10 7 5 9 11 4 1 11 18 14 4 -5 -4 6 10 10 14 20 23 21 17 16 14 10 10 6 -5 -1 20 24 -1 -25 -28 -14 7 26 31 20 2 -6 0 7 11
29 25 25 26 27 29 26 21 20 24 21 15 17 22 25 25 25 26 21 13 9 1 1 22 31 12 5 10 9 11 18 23 23 15 10 14 11 9 14 7 -3 6 14 9 6 9 11 7 3 6 7 2 4 11 13 12 9 0 -4 -1 1 4 11 18 23 19 11 11 13 10 8 5 -4 -3 8 12 1 -20 -40 -35 -9 14 19 8 -1 0 2 5
23 15 15 22 27 29 32 31 23 17 18 18 17 17 19 21 24 29 28 20 17 6 -9 8 39 32 10 10 14 9 4 7 12 7 -0 4 7 6 12 12 3 3 11 16 13 4 4 13 10 4 6 5 2 8 12 13 17 10 2 8 9 0 -1 4 11 16 15 16 25 25 15 16 22 16 3 2 13 16 5 -8 -15 -16 -8 -2 -2 -0 6 11
Height
5899 5898 5898 5897 5897 5896 5896 5896 5896 5895 5895 5894 5894 5894 5893 5893 5893 5894 5894 5894 5895 5895 5895 5896 5896 5897 5897 5897 5897 5897 5898 5897 5897 5897 5898 5898 5899 5900 5900 5901 5901 5902 5903 5905 5906 5908 5908 5909 5909 5909 5909 5909 5909 5910 5910 5911 5911 5911 5912 5911 5911 5914 5915 5914 5914 5913 5913 5913 5912 5912 5912 5911 5911 5910 5910 5910 5910 5910 5910 5910 5910 5910 5910 5910 5910 5909 5910 5910
5898 5897 5897 5896 5896 5895 5895 5895 5895 5894 5894 5894 5893 5893 5892 5892 5892 5892 5892 5892 5893 5893 5893 5894 5894 5895 5895 5896 5896 5896 5896 5897 5896 5896 5897 5898 5898 5899 5899 5900 5901 5901 5903 5904 5905 5907 5908 5908 5909 5909 5910 5910 5910 5910 5911 5911 5912 5912 5913 5912 5912 5914 5915 5914 5913 5913 5913 5913 5913 5913 5913 5912 5911 5911 5911 5911 5911 5911 5911 5910 5910 5910 5910 5909 5909 5909 5910 5910
5897 5897 5896 5895 5895 5894 5894 5894 5893 5893 5893 5893 5892 5892 5891 5891 5891 5891 5891 5891 5891 5891 5892 5892 5893 5893 5894 5894 5895 5895 5895 5895 5895 5896 5896 5897 5897 5898 5899 5899 5900 5901 5902 5903 5904 5905 5907 5908 5909 5909 5910 5910 5910 5911 5911 5912 5912 5913 5914 5914 5913 5913 5915 5914 5914 5914 5914 5914 5913 5913 5913 5913 5912 5911 5911 5911 5911 5911 5911 5911 5911 5910 5910 5909 5909 5908 5909 5910
5897 5896 5895 5895 5894 5893 5893 5893 5892 5892 5892 5891 5891 5891 5890 5890 5890 5890 5890 5889 5889 5890 5890 5890 5891 5891 5892 5892 5893 5893 5893 5894 5895 5895 5895 5896 5897 5897 5898 5899 5899 5900 5901 5901 5903 5904 5906 5907 5909 5910 5910 5910 5910 5911 5912 5912 5913 5913 5914 5915 5914 5914 5915 5914 5914 5914 5914 5914 5914 5913 5913 5913 5912 5912 5911 5911 5911 5911 5911 5911 5911 5910 5910 5909 5909 5908 5909 5910
5896 5895 5895 5894 5893 5893 5892 5892 5891 5891 5890 5890 5890 5889 5889 5889 5889 5889 5889 5888 5888 5888 5888 5888 5889 5889 5890 5890 5891 5891 5891 5892 5894 5894 5895 5895 5896 5897 5897 5898 5898 5899 5900 5901 5902 5903 5905 5907 5908 5909 5910 5910 5910 5911 5912 5913 5913 5913 5914 5915 5914 5914 5915 5915 5914 5914 5914 5914 5914 5914 5913 5913 5913 5912 5912 5912 5912 5912 5911 5911 5911 5910 5910 5910 5909 5908 5908 5909
5895 5894 5894 5893 5893 5892 5892 5891 5890 5890 5889 5889 5888 5888 5888 5888 5887 5887 5887 5887 5887 5887 5887 5887 5887 5887 5888 5888 5889 5889 5889 5891 5892 5892 5894 5895 5895 5896 5897 5897 5898 5898 5899 5900 5901 5903 5904 5906 5907 5909 5910 5910 5911 5911 5912 5913 5913 5913 5914 5914 5914 5915 5915 5914 5914 5914 5914 5914 5914 5914 5913 5913 5913 5913 5912 5912 5912 5911 5911 5911 5910 5910 5910 5910 5909 5909 5908 5909
5894 5893 5893 5892 5892 5891 5891 5890 5890 5889 5889 5888 5887 5887 5887 5886 5886 5886 5886 5886 5886 5886 5886 5885 5885 5886 5886 5886 5886 5886 5887 5888 5890 5891 5893 5894 5895 5895 5896 5896 5897 5897 5898 5900 5901 5902 5903 5905 5907 5908 5909 5910 5910 5911 5912 5913 5913 5914 5914 5914 5914 5914 5914 5914 5914 5914 5914 5914 5914 5913 5913 5913 5913 5913 5912 5912 5912 5911 5911 5911 5910 5910 5910 5910 5910 5909 5909 5909
5892 5892 5891 5891 5890 5890 5890 5889 5889 5888 5888 5887 5887 5886 5886 5885 5885 5885 5885 5885 5885 5885 5885 5884 5884 5884 5884 5884 5884 5884 5884 5886 5889 5891 5892 5893 5894 5894 5895 5895 5896 5896 5898 5899 5900 5902 5903 5904 5906 5907 5908 5909 5910 5911 5912 5912 5913 5914 5914 5914 5914 5914 5914 5914 5914 5914 5914 5914 5913 5913 5913 5913 5913 5913 5913 5912 5912 5911 5911 5910 5910 5910 5910 5910 5910 5910 5910 5909
5891 5890 5890 5889 5889 5889 5888 5888 5888 5887 5887 5886 5886 5885 5885 5884 5884 5884 5884 5884 5884 5883 5883 5883 5883 5883 5882 5882 5882 5882 5882 5885 5888 5890 5890 5892 5893 5893 5894 5895 5895 5896 5896 5898 5899 5900 5902 5904 5905 5907 5907 5908 5909 5910 5911 5912 5915 5916 5914 5914 5914 5914 5914 5914 5914 5914 5914 5914 5913 5913 5913 5913 5913 5913 5913 5912 5912 5911 5911 5910 5910 5910 5910 5910 5911 5911 5910 5910
5890 5889 5888 5888 5887 5887 5887 5887 5886 5886 5886 5885 5885 5884 5884 5883 5883 5883 5882 5882 5882 5882 5882 5882 5882 5881 5881 5881 5880 5880 5882 5884 5886 5888 5888 5890 5891 5892 5893 5893 5894 5895 5895 5897 5898 5899 5901 5903 5904 5905 5906 5906 5907 5909 5910 5912 5915 5915 5913 5913 5913 5913 5913 5913 5913 5914 5914 5914 5913 5913 5913 5913 5913 5914 5913 5913 5912 5912 5911 5911 5910 5910 5910 5910 5911 5911 5910 5910
5888 5888 5887 5886 5886 5885 5885 5885 5884 5884 5884 5884 5883 5883 5882 5882 5882 5881 5881 5881 5881 5881 5881 5881 5880 5880 5880 5879 5879 5879 5881 5882 5884 5885 5886 5888 5889 5891 5891 5892 5893 5894 5894 5895 5896 5898 5900 5902 5902 5903 5903 5905 5906 5907 5909 5910 5910 5911 5911 5912 5912 5912 5913 5913 5913 5913 5913 5913 5913 5913 5913 5914 5914 5914 5914 5913 5912 5912 5911 5911 5910 5910 5910 5910 5911 5911 5910 5910
5887 5886 5885 5885 5884 5884 5883 5883 5883 5882 5882 5882 5882 5881 5881 5881 5880 5880 5879 5879 5879 5879 5879 5879 5879 5879 5878 5878 5878 5879 5879 5880 5881 5882 5883 5885 5887 5888 5890 5890 5891 5892 5893 5894 5895 5897 5898 5900 5900 5900 5902 5904 5906 5907 5908 5908 5909 5909 5910 5911 5912 5912 5912 5912 5912 5913 5913 5913 5913 5913 5913 5914 5914 5914 5914 5913 5912 5912 5911 5911 5910 5910 5910 5910 5911 5911 5910 5910
5885 5884 5884 5883 5882 5882 5881 5881 5881 5881 5880 5880 5880 5879 5879 5879 5879 5878 5878 5878 5878 5877 5877 5878 5877 5878 5877 5877 5878 5877 5877 5878 5878 5879 5880 5882 5884 5886 5888 5889 5890 5891 5892 5893 5894 5895 5896 5897 5898 5899 5901 5903 5905 5906 5906 5907 5908 5909 5910 5911 5912 5913 5913 5912 5912 5913 5913 5912 5913 5912 5913 5913 5914 5914 5913 5913 5912 5912 5911 5911 5910 5911 5910 5911 5911 5911 5911 5911
5883 5882 5882 5881 5881 5880 5879 5879 5879 5878 5878 5878 5878 5877 5877 5877 5877 5876 5876 5876 5876 5876 5875 5875 5876 5876 5876 5875 5876 5876 5876 5876 5876 5876 5877 5879 5881 5883 5885 5887 5888 5889 5890 5891 5892 5893 5894 5895 5896 5898 5900 5901 5903 5904 5904 5906 5908 5909 5909 5910 5911 5912 5913 5912 5911 5912 5912 5912 5912 5912 5912 5913 5913 5913 5913 5913 5912 5912 5912 5911 5911 5911 5911 5911 5911 5911 5911 5912
5881 5880 5879 5879 5879 5878 5878 5877 5876 5876 5876 5876 5876 5875 5875 5875 5875 5875 5874 5874 5874 5874 5874 5874 5873 5874 5874 5874 5875 5874 5874 5875 5874 5874 5875 5876 5879 5881 5883 5884 5886 5887 5888 5889 5890 5891 5892 5893 5894 5897 5899 5901 5902 5902 5903 5905 5907 5907 5908 5910 5911 5912 5913 5911 5910 5912 5911 5911 5912 5912 5912 5913 5913 5913 5912 5912 5912 5912 5912 5911 5911 5911 5911 5911 5911 5911 5912 5912
5879 5878 5877 5877 5876 5876 5875 5875 5874 5874 5874 5874 5873 5873 5873 5873 5873 5872 5872 5872 5872 5872 5872 5872 5871 5872 5872 5872 5873 5873 5873 5873 5873 5872 5873 5874 5876 5878 5881 5882 5883 5885 5886 5887 5888 5889 5891 5892 5893 5896 5897 5899 5900 5901 5902 5904 5905 5906 5908 5911 5912 5911 5913 5911 5910 5911 5910 5911 5911 5911 5912 5913 5912 5912 5912 5912 5912 5912 5912 5912 5911 5911 5911 5911 5911 5911 5912 5912
5876 5875 5874 5874 5874 5874 5873 5872 5872 5872 5871 5871 5871 5870 5870 5870 5870 5870 5870 5870 5869 5869 5870 5869 5870 5869 5869 5870 5870 5871 5871 5871 5871 5870 5870 5872 5873 5875 5878 5879 5881 5882 5884 5885 5886 5887 5889 5890 5892 5893 5895 5897 5898 5899 5901 5902 5904 5906 5907 5910 5910 5911 5912 5910 5909 5910 5910 5910 5911 5911 5911 5912 5911 5911 5911 5912 5912 5912 5912 5912 5911 5911 5911 5911 5911 5912 5912 5913
5873 5872 5871 5871 5871 5871 5870 5870 5870 5869 5869 5868 5868 5868 5867 5868 5867 5867 5867 5867 5867 5867 5867 5867 5867 5867 5867 5868 5868 5868 5869 5869 5869 5869 5869 5869 5871 5872 5874 5876 5878 5880 5881 5882 5884 5885 5886 5888 5889 5891 5892 5893 5895 5896 5898 5900 5903 5907 5908 5908 5909 5910 5912 5912 5909 5909 5909 5909 5909 5910 5910 5911 5910 5909 5910 5911 5912 5912 5912 5912 5912 5912 5911 5911 5911 5912 5912 5913
5869 5868 5868 5867 5867 5868 5867 5867 5867 5867 5866 5865 5865 5865 5864 5865 5864 5864 5865 5865 5865 5864 5864 5865 5865 5864 5864 5865 5865 5866 5867 5867 5867 5867 5867 5868 5868 5869 5871 5873 5875 5877 5878 5880 5882 5883 5884 5885 5886 5887 5888 5890 5893 5895 5898 5901 5903 5906 5908 5908 5908 5910 5912 5913 5910 5907 5908 5908 5908 5909 5910 5910 5910 5909 5910 5911 5911 5912 5912 5912 5912 5912 5911 5911 5911 5912 5912 5913
5866 5865 5864 5863 5863 5864 5864 5863 5863 5863 5863 5862 5862 5862 5861 5862 5861 5861 5862 5862 5861 5862 5861 5862 5862 5862 5862 5863 5863 5863 5864 5864 5864 5865 5865 5865 5866 5867 5868 5870 5872 5874 5875 5878 5879 5881 5882 5882 5882 5884 5888 5890 5893 5895 5898 5900 5902 5905 5908 5909 5908 5910 5912 5914 5912 5907 5906 5907 5907 5908 5908 5909 5909 5909 5909 5910 5910 5911 5911 5911 5911 5912 5911 5911 5911 5911 5912 5912
5863 5862 5861 5860 5859 5860 5860 5860 5860 5860 5859 5859 5859 5859 5859 5859 5858 5858 5859 5859 5858 5859 5858 5858 5859 5859 5859 5859 5860 5861 5861 5862 5862 5862 5862 5863 5864 5864 5866 5867 5868 5870 5873 5875 5876 5877 5878 5879 5881 5884 5887 5890 5892 5894 5896 5898 5900 5903 5907 5909 5908 5910 5913 5915 5914 5908 5904 5906 5906 5906 5907 5908 5908 5908 5908 5909 5910 5910 5910 5911 5911 5911 5911 5911 5911 5911 5911 5912
5859 5859 5858 5857 5856 5856 5856 5856 5856 5856 5855 5855 5855 5855 5855 5855 5855 5855 5855 5856 5855 5855 5855 5855 5856 5857 5856 5855 5857 5858 5858 5859 5859 5860 5860 5861 5861 5862 5863 5864 5865 5868 5870 5871 5872 5873 5874 5877 5880 5883 5885 5887 5890 5892 5893 5895 5898 5900 5904 5907 5907 5908 5911 5914 5914 5908 5903 5904 5905 5905 5906 5907 5907 5907 5907 5908 5909 5909 5910 5910 5910 5911 5911 5911 5911 5911 5911 5911
5855 5854 5854 5853 5852 5852 5852 5853 5852 5852 5852 5851 5851 5851 5851 5851 5851 5851 5851 5853 5853 5851 5852 5853 5852 5854 5853 5852 5854 5855 5855 5856 5856 5857 5858 5858 5858 5859 5861 5862 5863 5864 5865 5866 5868 5870 5873 5876 5880 5881 5882 5884 5886 5889 5891 5892 5894 5897 5900 5904 5905 5908 5910 5912 5911 5906 5902 5903 5904 5904 5904 5905 5905 5905 5906 5907 5908 5908 5909 5909 5909 5910 5910 5910 5910 5910 5911 5911
5850 5850 5850 5849 5848 5847 5848 5848 5848 5848 5848 5848 5847 5847 5847 5847 5847 5847 5847 5849 5850 5848 5847 5849 5850 5851 5850 5850 5851 5851 5852 5853 5853 5854 5855 5855 5856 5856 5858 5859 5859 5860 5861 5863 5866 5868 5871 5875 5877 5879 5880 5881 5883 5885 5887 5890 5891 5893 5897 5900 5903 5907 5909 5910 5908 5903 5901 5902 5901 5902 5902 5902 5903 5904 5905 5906 5906 5907 5908 5908 5908 5909 5909 5909 5910 5910 5910 5911
5845 5845 5845 5845 5844 5842 5843 5843 5843 5844 5844 5843 5843 5843 5843 5843 5843 5843 5843 5844 5846 5846 5843 5844 5847 5848 5847 5848 5848 5848 5849 5849 5850 5850 5852 5853 5852 5853 5855 5856 5856 5857 5858 5861 5863 5865 5868 5871 5873 5875 5876 5878 5880 5882 5884 5887 5889 5891 5893 5896 5901 5904 5906 5909 5907 5902 5899 5899 5899 5900 5899 5900 5901 5902 5903 5904 5905 5906 5906 5907 5907 5907 5907 5908 5908 5909 5910 5910
5840 5840 5840 5840 5839 5838 5837 5838 5839 5839 5839 5839 5839 5839 5839 5839 5839 5839 5839 5839 5841 5842 5840 5839 5842 5844 5845 5844 5844 5845 5845 5846 5847 5847 5849 5850 5849 5850 5852 5852 5853 5854 5855 5857 5859 5861 5863 5866 5869 5870 5872 5874 5876 5879 5881 5884 5887 5889 5891 5893 5897 5900 5902 5905 5907 5903 5898 5897 5898 5897 5897 5899 5900 5899 5901 5902 5903 5904 5904 5905 5905 5906 5906 5906 5906 5907 5908 5909
5835 5835 5835 5835 5834 5834 5832 5832 5833 5833 5834 5834 5834 5834 5834 5835 5835 5835 5835 5835 5835 5837 5838 5837 5837 5839 5841 5840 5841 5842 5841 5842 5844 5843 5845 5846 5845 5847 5848 5848 5850 5851 5852 5853 5853 5856 5860 5863 5864 5866 5869 5870 5872 5875 5879 5882 5883 5885 5890 5893 5893 5895 5897 5901 5904 5902 5898 5896 5896 5895 5896 5897 5896 5897 5899 5900 5901 5902 5902 5903 5903 5904 5905 5905 5904 5904 5906 5907
5829 5829 5829 5829 5829 5829 5828 5826 5827 5827 5828 5829 5829 5829 5830 5830 5831 5831 5831 5830 5829 5831 5835 5835 5833 5834 5836 5836 5838 5837 5837 5840 5839 5839 5841 5842 5842 5843 5844 5845 5847 5848 5849 5849 5850 5853 5857 5859 5859 5863 5867 5866 5869 5874 5877 5879 5880 5884 5888 5891 5892 5892 5893 5897 5900 5899 5897 5894 5892 5892 5894 5894 5893 5896 5897 5897 5898 5899 5900 5901 5901 5902 5903 5902 5902 5901 5903 5905
5823 5823 5823 5823 5823 5823 5823 5821 5821 5821 5822 5823 5824 5824 5824 5825 5825 5826 5826 5824 5824 5827 5830 5831 5830 5830 5831 5832 5833 5833 5834 5836 5834 5835 5838 5839 5839 5840 5841 5842 5843 5844 5845 5845 5848 5849 5851 5854 5855 5858 5862 5862 5865 5873 5875 5875 5877 5882 5885 5887 5890 5892 5891 5893 5895 5896 5896 5892 5889 5890 5891 5890 5891 5894 5895 5894 5895 5897 5898 5899 5898 5899 5900 5901 5900 5899 5899 5901
5817 5816 5817 5817 5817 5817 5817 5816 5815 5815 5815 5816 5818 5818 5819 5819 5820 5820 5819 5818 5821 5823 5824 5826 5826 5825 5827 5827 5828 5829 5830 5831 5830 5832 5834 5834 5836 5836 5837 5838 5839 5840 5841 5841 5845 5845 5846 5849 5850 5852 5857 5859 5863 5869 5870 5871 5874 5879 5881 5883 5888 5891 5891 5890 5891 5893 5893 5889 5888 5891 5891 5889 5889 5891 5892 5892 5894 5896 5896 5895 5896 5897 5898 5900 5899 5897 5898 5898
5809 5809 5809 5810 5810 5810 5810 5810 5810 5809 5808 5809 5811 5812 5812 5813 5813 5813 5811 5813 5818 5818 5818 5822 5821 5820 5823 5824 5824 5824 5825 5826 5826 5828 5829 5830 5832 5832 5833 5835 5835 5836 5837 5838 5841 5842 5842 5843 5845 5849 5853 5856 5859 5863 5865 5867 5870 5874 5876 5879 5884 5887 5887 5886 5887 5887 5885 5884 5887 5891 5892 5889 5887 5888 5890 5891 5893 5893 5892 5894 5895 5896 5897 5898 5897 5897 5898 5898
5802 5801 5802 5802 5803 5803 5803 5803 5803 5802 5802 5802 5803 5804 5806 5806 5805 5806 5807 5809 5813 5812 5812 5816 5817 5817 5819 5819 5819 5819 5821 5821 5822 5823 5825 5826 5827 5829 5830 5831 5831 5833 5834 5835 5837 5838 5838 5839 5841 5845 5849 5851 5854 5858 5860 5861 5865 5868 5870 5875 5879 5881 5881 5880 5881 5881 5880 5881 5885 5888 5891 5889 5884 5885 5888 5890 5890 5889 5890 5892 5893 5894 5895 5896 5896 5896 5897 5897
5794 5794 5793 5793 5795 5795 5795 5796 5795 5795 5795 5795 5795 5796 5798 5798 5797 5801 5803 5805 5807 5806 5807 5810 5812 5813 5813 5813 5814 5814 5816 5817 5817 5818 5820 5821 5823 5824 5826 5827 5827 5829 5830 5831 5833 5833 5834 5835 5837 5840 5843 5846 5848 5852 5853 5855 5860 5862 5865 5871 5873 5874 5875 5875 5877 5878 5878 5879 5882 5884 5886 5885 5882 5883 5885 5887 5888 5888 5888 5889 5891 5892 5894 5895 5894 5893 5893 5895
5785 5785 5785 5784 5786 5786 5786 5787 5787 5787 5787 5788 5787 5788 5789 5789 5792 5796 5797 5799 5801 5801 5801 5804 5806 5807 5807 5808 5809 5809 5811 5813 5812 5813 5815 5817 5818 5819 5821 5823 5823 5825 5827 5827 5828 5829 5830 5830 5833 5836 5838 5841 5844 5847 5850 5853 5857 5858 5862 5867 5867 5866 5869 5872 5874 5875 5876 5879 5881 5881 5879 5878 5879 5881 5883 5884 5886 5886 5885 5885 5889 5891 5894 5896 5892 5889 5890 5893
5775 5775 5776 5775 5776 5777 5777 5777 5778 5778 5778 5778 5779 5778 5779 5782 5787 5790 5790 5793 5795 5795 5795 5797 5799 5800 5801 5802 5804 5803 5805 5809 5808 5808 5810 5811 5812 5814 5816 5819 5820 5821 5823 5823 5824 5825 5826 5827 5830 5832 5833 5836 5840 5843 5848 5851 5851 5853 5859 5862 5860 5860 5866 5871 5873 5873 5875 5878 5878 5878 5875 5874 5877 5880 5879 5880 5882 5883 5882 5883 5886 5889 5893 5893 5888 5887 5889 5891
5765 5765 5765 5765 5766 5767 5767 5767 5768 5768 5768 5769 5768 5769 5773 5777 5780 5782 5784 5785 5786 5787 5788 5789 5791 5794 5794 5796 5798 5798 5800 5804 5802 5802 5805 5806 5807 5810 5811 5813 5816 5816 5818 5820 5820 5821 5823 5824 5826 5826 5828 5831 5834 5838 5842 5844 5847 5849 5852 5855 5856 5860 5865 5868 5869 5871 5874 5873 5873 5874 5875 5875 5877 5876 5875 5876 5878 5878 5879 5882 5884 5888 5891 5888 5884 5885 5888 5889
5752 5753 5753 5753 5755 5756 5756 5756 5756 5756 5757 5757 5757 5762 5767 5769 5771 5773 5775 5776 5777 5779 5780 5782 5785 5788 5789 5789 5791 5792 5794 5797 5796 5796 5800 5802 5802 5804 5806 5808 5810 5812 5814 5816 5817 5818 5819 5821 5821 5822 5825 5826 5828 5832 5834 5837 5843 5845 5846 5852 5857 5858 5860 5863 5865 5867 5868 5867 5868 5871 5872 5874 5875 5873 5872 5874 5875 5874 5877 5880 5882 5885 5887 5884 5882 5884 5885 5885
5740 5740 5739 5740 5743 5743 5744 5745 5744 5744 5745 5744 5748 5754 5758 5758 5760 5764 5765 5767 5769 5771 5772 5775 5778 5780 5782 5783 5785 5786 5787 5789 5790 5791 5794 5796 5797 5798 5801 5802 5804 5807 5810 5812 5814 5814 5815 5818 5819 5818 5820 5821 5821 5825 5829 5831 5836 5841 5844 5849 5852 5850 5852 5856 5859 5861 5862 5863 5865 5867 5868 5870 5872 5871 5870 5871 5871 5872 5875 5877 5879 5881 5884 5884 5882 5882 5881 5881
5727 5727 5724 5728 5732 5729 5730 5732 5731 5731 5731 5732 5738 5744 5746 5747 5750 5754 5756 5758 5760 5762 5763 5767 5770 5772 5773 5776 5779 5781 5781 5781 5784 5786 5787 5789 5792 5793 5795 5797 5799 5801 5804 5807 5809 5810 5810 5812 5815 5816 5815 5816 5816 5818 5823 5827 5829 5835 5840 5843 5844 5844 5848 5852 5852 5853 5857 5860 5861 5864 5864 5864 5867 5869 5868 5868 5869 5870 5871 5875 5876 5878 5883 5886 5884 5879 5879 5880
5713 5714 5710 5714 5719 5715 5716 5718 5718 5718 5719 5722 5729 5732 5734 5738 5739 5742 5745 5747 5749 5751 5753 5757 5761 5763 5765 5768 5771 5774 5775 5775 5778 5779 5779 5783 5787 5788 5788 5791 5794 5796 5799 5802 5805 5806 5806 5806 5810 5814 5811 5810 5812 5815 5820 5824 5825 5828 5831 5834 5837 5840 5844 5847 5846 5849 5853 5855 5857 5859 5859 5859 5864 5868 5867 5866 5866 5867 5869 5873 5874 5876 5881 5886 5885 5879 5877 5880
5699 5700 5696 5699 5704 5702 5702 5703 5704 5706 5707 5711 5717 5719 5721 5725 5726 5729 5733 5736 5738 5740 5743 5747 5750 5754 5757 5759 5761 5765 5768 5771 5772 5771 5773 5778 5780 5781 5782 5785 5789 5791 5792 5796 5798 5800 5802 5801 5803 5810 5808 5805 5809 5814 5816 5819 5821 5822 5824 5827 5832 5836 5840 5841 5842 5847 5850 5848 5851 5855 5856 5857 5861 5865 5866 5864 5863 5864 5868 5871 5873 5875 5878 5881 5883 5880 5876 5878
5684 5685 5682 5684 5689 5690 5687 5687 5691 5693 5693 5699 5705 5706 5708 5711 5714 5718 5722 5724 5726 5728 5732 5735 5740 5744 5747 5750 5752 5755 5760 5764 5764 5764 5767 5772 5773 5774 5777 5779 5783 5786 5786 5789 5793 5795 5798 5798 5797 5802 5804 5803 5806 5808 5809 5812 5815 5818 5819 5823 5828 5831 5834 5835 5836 5842 5845 5844 5847 5850 5851 5854 5858 5862 5863 5861 5859 5861 5866 5868 5869 5871 5872 5875 5880 5879 5874 5875
5668 5671 5670 5668 5672 5675 5673 5673 5678 5678 5680 5687 5692 5692 5695 5698 5701 5706 5709 5711 5714 5717 5721 5725 5730 5734 5737 5741 5743 5746 5751 5755 5756 5757 5761 5766 5767 5767 5769 5772 5776 5781 5781 5784 5788 5789 5791 5793 5793 5796 5800 5802 5803 5804 5804 5806 5809 5811 5814 5817 5820 5823 5828 5830 5833 5838 5840 5840 5843 5845 5844 5847 5854 5858 5859 5858 5855 5857 5861 5863 5865 5867 5868 5872 5875 5873 5871 5873
5653 5656 5658 5655 5656 5659 5658 5660 5666 5665 5667 5674 5677 5679 5683 5685 5688 5693 5696 5699 5702 5705 5710 5715 5720 5723 5727 5732 5735 5737 5743 5746 5748 5751 5754 5758 5761 5760 5762 5765 5769 5774 5778 5780 5782 5784 5785 5787 5789 5790 5793 5796 5798 5798 5799 5800 5802 5805 5809 5811 5813 5818 5823 5825 5829 5833 5832 5832 5836 5838 5838 5842 5848 5852 5854 5856 5854 5852 5855 5858 5861 5862 5863 5867 5869 5867 5868 5872
5638 5640 5644 5642 5641 5643 5644 5647 5651 5651 5652 5658 5660 5663 5667 5669 5674 5680 5683 5687 5691 5694 5699 5705 5710 5713 5717 5722 5725 5728 5734 5737 5740 5744 5747 5750 5753 5754 5755 5757 5761 5768 5773 5775 5777 5778 5779 5781 5783 5785 5786 5788 5791 5793 5795 5796 5798 5801 5804 5806 5809 5813 5816 5818 5822 5824 5822 5824 5829 5831 5834 5841 5846 5847 5850 5853 5851 5849 5851 5853 5857 5859 5860 5864 5865 5863 5866 5869
5624 5626 5630 5629 5626 5629 5632 5634 5637 5637 5638 5642 5645 5648 5652 5655 5660 5665 5668 5673 5678 5682 5687 5693 5698 5702 5706 5711 5715 5719 5724 5728 5732 5735 5739 5743 5745 5746 5747 5749 5755 5763 5766 5768 5770 5771 5773 5775 5776 5778 5781 5784 5788 5792 5793 5794 5796 5797 5798 5802 5806 5808 5811 5813 5815 5815 5817 5821 5822 5823 5828 5836 5840 5842 5846 5850 5848 5845 5848 5851 5854 5857 5859 5860 5859 5859 5863 5866
5609 5612 5616 5615 5612 5615 5620 5622 5623 5621 5622 5625 5629 5634 5639 5644 5647 5651 5656 5661 5666 5670 5675 5681 5686 5691 5696 5701 5705 5710 5715 5719 5723 5727 5731 5735 5737 5739 5741 5744 5751 5756 5758 5761 5764 5764 5767 5770 5771 5773 5777 5780 5784 5788 5789 5790 5794 5796 5795 5796 5800 5804 5807 5808 5808 5810 5815 5817 5815 5818 5823 5826 5831 5838 5842 5846 5845 5843 5845 5848 5850 5853 5855 5854 5854 5857 5861 5862
5595 5599 5602 5601 5599 5601 5606 5608 5608 5608 5610 5614 5616 5621 5627 5629 5633 5639 5646 5650 5655 5659 5664 5669 5675 5681 5686 5691 5695 5701 5706 5710 5714 5719 5723 5727 5730 5733 5735 5738 5744 5748 5751 5755 5758 5760 5762 5765 5768 5771 5773 5776 5779 5782 5784 5786 5790 5793 5792 5792 5795 5798 5800 5802 5803 5806 5811 5811 5811 5816 5819 5818 5823 5831 5836 5840 5841 5841 5842 5843 5846 5849 5850 5850 5852 5855 5857 5857
5584 5586 5588 5588 5588 5590 5593 5595 5596 5600 5604 5606 5608 5613 5617 5619 5624 5629 5634 5639 5643 5648 5653 5660 5666 5671 5676 5681 5686 5691 5697 5701 5706 5711 5716 5720 5723 5726 5730 5734 5737 5740 5744 5748 5752 5755 5757 5760 5764 5767 5768 5770 5773 5776 5779 5781 5784 5787 5787 5789 5791 5793 5794 5796 5798 5801 5804 5805 5807 5812 5814 5814 5817 5822 5827 5833 5837 5839 5840 5839 5840 5844 5845 5847 5850 5851 5851 5852
5575 5576 5577 5577 5579 5581 5583 5585 5588 5591 5594 5597 5600 5604 5607 5611 5615 5618 5622 5627 5630 5636 5643 5648 5651 5656 5662 5669 5675 5682 5688 5694 5698 5703 5708 5712 5714 5718 5724 5727 5730 5733 5737 5742 5747 5749 5751 5754 5758 5761 5763 5764 5767 5771 5773 5775 5778 5781 5783 5786 5788 5789 5790 5791 5793 5796 5798 5799 5802 5806 5807 5808 5812 5815 5818 5824 5830 5834 5835 5835 5836 5838 5840 5843 5846 5845 5846 5848
5568 5568 5568 5569 5570 5573 5575 5578 5581 5583 5586 5590 5593 5596 5598 5601 5603 5605 5611 5618 5624 5630 5632 5630 5632 5640 5649 5657 5666 5674 5680 5683 5687 5692 5698 5702 5707 5712 5717 5721 5724 5728 5732 5736 5741 5743 5745 5748 5752 5756 5757 5758 5762 5765 5767 5770 5772 5773 5776 5779 5782 5784 5786 5787 5788 5790 5791 5793 5796 5799 5799 5801 5807 5810 5810 5813 5820 5825 5829 5831 5832 5833 5836 5838 5839 5839 5842 5845
5560 5561 5562 5562 5564 5565 5567 5571 5574 5576 5579 5583 5585 5587 5590 5592 5594 5597 5603 5610 5616 5620 5621 5620 5625 5633 5640 5647 5654 5657 5660 5664 5671 5678 5683 5688 5695 5702 5707 5712 5718 5723 5728 5731 5735 5738 5740 5742 5747 5750 5751 5754 5758 5760 5763 5766 5765 5764 5766 5771 5775 5778 5781 5784 5785 5785 5786 5788 5789 5790 5793 5797 5802 5804 5803 5805 5811 5816 5822 5827 5828 5829 5831 5834 5834 5836 5840 5843